User: anonymous   Login
Location: The Saddle
(36.8333°N, 80.3417°W)
Time: 21:08:53
(UTC-04:00)
Language:

XW-2C - Orbit

View from above orbital plane
View from above orbital plane
View from above satellite
View from above satellite

Ground track
Ground track

The orbit data is extracted from the following two-line orbital elements,

1 40906U 15049H   24141.79839663  .00039980  00000-0  96851-3 0  9992
2 40906  97.4793 157.9249 0009573  54.9705 305.2438 15.40934712480251
Epoch (UTC): 20 May 2024 19:09:41
Eccentricity: 0.0009573
inclination: 97.4793°
perigee height: 437 km
apogee height: 450 km
right ascension of ascending node: 157.9249°
argument of perigee: 54.9705°
revolutions per day: 15.40934712
mean anomaly at epoch: 305.2438°
orbit number at epoch: 48025

The dashed part of the orbit path shows where the satellite is in the earth's shadow,  

DLR